N8IR-19 Weather Reports


Display with metric or nautical units.
time (UTC)temp
F
wind
direction
speed
MPH
gust
MPH
rain 1hr
in
rain 24hr
in
rain mn
in
humidity
%
barometer
mb
20260507232417 57 293 2.0 4.0 0.00 0.00 0.00 32 992.3
20260507231917 57 270 3.0 5.0 0.00 0.00 0.00 30 992.3
20260507231417 57 338 2.0 4.0 0.00 0.00 0.00 30 992.4
20260507230957 57 315 1.0 3.0 0.00 0.00 0.00 30 992.4
20260507230417 57 338 2.0 5.0 0.00 0.00 0.00 29 992.4
20260507225917 57 315 3.0 5.0 0.00 0.00 0.00 30 992.5
20260507225418 57 293 4.0 8.0 0.00 0.00 0.00 31 992.6
20260507224920 57 270 6.0 9.0 0.00 0.00 0.00 31 992.6
20260507224418 57 338 5.0 8.0 0.00 0.00 0.00 32 992.6
20260507223939 57 293 3.0 5.0 0.00 0.00 0.00 31 992.6
20260507223417 57 338 4.0 8.0 0.00 0.00 0.00 30 992.6
20260507222939 57 270 3.0 7.0 0.00 0.00 0.00 31 992.7
20260507222419 57 270 7.0 10.0 0.00 0.00 0.00 33 992.6
20260507221918 57 315 4.0 7.0 0.00 0.00 0.00 31 992.7
20260507221419 57 270 7.0 9.0 0.00 0.00 0.00 32 992.7
20260507220919 57 270 6.0 9.0 0.00 0.00 0.00 31 992.5
20260507220419 57 315 8.0 12.0 0.00 0.00 0.00 32 992.6
20260507215939 57 270 7.0 10.0 0.00 0.00 0.00 32 992.5
20260507215420 57 270 7.0 10.0 0.00 0.00 0.00 32 992.5
20260507214917 57 270 6.0 9.0 0.00 0.00 0.00 32 992.5
20260507214420 57 270 6.0 9.0 0.00 0.00 0.00 32 992.6
20260507213939 57 270 7.0 10.0 0.00 0.00 0.00 36 992.6
20260507213421 57 270 7.0 10.0 0.00 0.00 0.00 35 992.5
20260507212920 57 270 9.0 12.0 0.00 0.00 0.00 35 992.5
20260507212419 57 293 4.0 5.0 0.00 0.00 0.00 33 992.5
20260507211939 57 270 6.0 8.0 0.00 0.00 0.00 32 992.5
20260507211419 57 270 6.0 10.0 0.00 0.00 0.00 32 992.5
20260507210937 57 270 5.0 9.0 0.00 0.00 0.00 35 992.5
20260507210420 57 270 12.0 14.0 0.00 0.00 0.00 35 992.4
20260507205919 57 293 4.0 8.0 0.00 0.00 0.00 35 992.4
20260507205419 57 293 5.0 8.0 0.00 0.00 0.00 34 992.4
20260507204918 57 270 5.0 7.0 0.00 0.00 0.00 34 992.5
20260507204437 57 270 8.0 10.0 0.00 0.00 0.00 33 992.5
20260507203916 57 270 7.0 11.0 0.00 0.00 0.00 33 992.6
20260507203419 57 270 8.0 11.0 0.00 0.00 0.00 33 992.5
20260507202919 57 293 7.0 10.0 0.00 0.00 0.00 35 992.6
20260507202419 57 293 7.0 11.0 0.00 0.00 0.00 30 992.5
20260507201916 57 270 9.0 13.0 0.00 0.00 0.00 31 992.5
20260507201418 57 293 6.0 9.0 0.00 0.00 0.00 34 992.5
20260507200918 57 270 8.0 11.0 0.00 0.00 0.00 33 992.5
20260507200418 57 270 8.0 10.0 0.00 0.00 0.00 35 992.4
20260507195916 57 270 7.0 11.0 0.00 0.00 0.00 36 992.5
20260507195418 57 293 6.0 8.0 0.00 0.00 0.00 34 992.3
20260507194917 57 270 3.0 4.0 0.00 0.00 0.00 34 992.3
20260507194418 57 270 7.0 10.0 0.00 0.00 0.00 32 992.5
20260507193919 57 270 7.0 10.0 0.00 0.00 0.00 35 992.5
20260507193419 57 270 13.0 16.0 0.00 0.00 0.00 32 992.7
20260507192920 57 270 11.0 13.0 0.00 0.00 0.00 37 992.7
20260507192418 56 270 7.0 10.0 0.00 0.00 0.00 38 992.6
20260507191918 56 293 5.0 9.0 0.00 0.00 0.00 42 992.7
20260507191422 56 0 9.0 12.0 0.00 0.00 0.00 42 992.7
20260507190918 57 270 9.0 11.0 0.00 0.00 0.00 38 992.7
20260507190420 56 248 11.0 14.0 0.00 0.00 0.00 39 992.6
20260507185918 56 270 11.0 13.0 0.00 0.00 0.00 38 992.7
20260507185440 56 270 9.0 16.0 0.00 0.00 0.00 38 992.7
20260507184918 56 270 11.0 13.0 0.00 0.00 0.00 38 992.7
20260507184420 55 270 8.0 10.0 0.00 0.00 0.00 37 992.8
20260507183918 56 270 10.0 12.0 0.00 0.00 0.00 39 992.8
20260507183418 55 270 7.0 10.0 0.00 0.00 0.00 41 992.8
20260507182921 55 270 11.0 12.0 0.00 0.00 0.00 42 992.8
20260507182420 54 248 8.0 10.0 0.00 0.00 0.00 40 992.7
20260507181920 54 270 9.0 14.0 0.00 0.00 0.00 39 992.8
20260507181421 55 270 15.0 17.0 0.00 0.00 0.00 39 992.7
20260507180918 55 270 9.0 12.0 0.00 0.00 0.00 39 992.7
20260507180420 55 248 7.0 11.0 0.00 0.00 0.00 38 992.6
20260507175941 55 248 10.0 11.0 0.00 0.00 0.00 40 992.8
20260507175420 55 248 9.0 11.0 0.00 0.00 0.00 40 992.8
20260507174921 55 248 8.0 11.0 0.00 0.00 0.00 39 992.8
20260507174440 55 270 9.0 12.0 0.00 0.00 0.00 40 992.9
20260507173921 55 270 10.0 11.0 0.00 0.00 0.00 39 993.0
20260507173418 55 270 11.0 14.0 0.00 0.00 0.00 40 993.0
20260507172941 55 248 6.0 9.0 0.00 0.00 0.00 41 993.0
20260507172421 54 248 9.0 13.0 0.00 0.00 0.00 40 993.0
20260507171920 54 270 10.0 11.0 0.00 0.00 0.00 42 993.2
20260507171421 55 270 13.0 16.0 0.00 0.00 0.00 42 993.1
20260507170920 54 270 10.0 13.0 0.00 0.00 0.00 40 993.2
20260507170418 55 270 10.0 14.0 0.00 0.00 0.00 42 993.2
20260507165921 54 270 8.0 11.0 0.00 0.00 0.00 44 993.2
20260507165421 54 270 8.0 12.0 0.00 0.00 0.00 42 993.3
20260507164920 53 270 5.0 8.0 0.00 0.00 0.00 44 993.3
20260507164420 53 293 6.0 8.0 0.00 0.00 0.00 42 993.4
20260507163922 53 270 7.0 9.0 0.00 0.00 0.00 43 993.4
20260507163418 54 270 11.0 14.0 0.00 0.00 0.00 42 993.2
20260507162920 54 293 5.0 7.0 0.00 0.00 0.00 41 993.4
20260507162421 54 315 4.0 7.0 0.00 0.00 0.00 41 993.3
20260507161921 53 270 6.0 8.0 0.00 0.00 0.00 41 993.4
20260507161421 53 338 4.0 9.0 0.00 0.00 0.00 39 993.4
20260507160920 54 315 3.0 5.0 0.00 0.00 0.00 40 993.2
20260507160501 54 315 3.0 8.0 0.00 0.00 0.00 42 993.2
20260507155918 54 293 3.0 5.0 0.00 0.00 0.00 42 993.2
20260507155421 54 293 3.0 7.0 0.00 0.00 0.00 45 993.2
20260507154918 53 270 1.0 2.0 0.00 0.00 0.00 42 993.2
20260507154421 54 293 4.0 7.0 0.00 0.00 0.00 46 993.3
20260507153920 54 315 4.0 6.0 0.00 0.00 0.00 45 993.3
20260507153420 53 315 5.0 8.0 0.00 0.00 0.00 44 993.3
20260507152922 54 315 3.0 5.0 0.00 0.00 0.00 45 993.3
20260507152420 54 338 2.0 5.0 0.00 0.00 0.00 45 993.2
20260507151920 54 315 3.0 4.0 0.00 0.00 0.00 45 993.4
20260507151439 54 293 3.0 6.0 0.00 0.00 0.00 46 993.5
20260507150920 54 270 4.0 6.0 0.00 0.00 0.00 45 993.4
20260507150420 54 315 3.0 4.0 0.00 0.00 0.00 46 993.4
20260507145919 53 270 3.0 6.0 0.00 0.00 0.00 45 993.4
20260507145418 53 338 2.0 5.0 0.00 0.00 0.00 44 993.4
20260507144920 53 270 4.0 7.0 0.00 0.00 0.00 46 993.3
20260507144417 53 293 2.0 3.0 0.00 0.00 0.00 45 993.4
20260507143920 53 270 4.0 6.0 0.00 0.00 0.00 45 993.5
20260507143418 53 270 4.0 6.0 0.00 0.00 0.00 47 993.4
20260507142918 53 293 2.0 4.0 0.00 0.00 0.00 47 993.4
20260507142421 52 293 4.0 6.0 0.00 0.00 0.00 48 993.4
20260507141942 52 270 4.0 7.0 0.00 0.00 0.00 48 993.4
20260507141419 52 270 3.0 4.0 0.00 0.00 0.00 48 993.4
20260507140920 52 270 4.0 7.0 0.00 0.00 0.00 49 993.4
20260507140418 52 270 3.0 4.0 0.00 0.00 0.00 49 993.5
20260507135939 52 270 4.0 4.0 0.00 0.00 0.00 50 993.4
20260507135420 51 270 4.0 6.0 0.00 0.00 0.00 50 993.5
20260507134919 51 270 4.0 6.0 0.00 0.00 0.00 50 993.6
20260507134420 50 270 4.0 7.0 0.00 0.00 0.00 51 993.6
20260507133918 50 270 3.0 4.0 0.00 0.00 0.00 52 993.6
20260507133440 49 248 3.0 4.0 0.00 0.00 0.00 53 993.6
20260507132940 49 248 3.0 4.0 0.00 0.00 0.00 52 993.6
20260507132420 49 248 3.0 4.0 0.00 0.00 0.00 53 993.6
20260507131918 48 225 4.0 5.0 0.00 0.00 0.00 52 993.7
20260507131441 48 248 3.0 4.0 0.00 0.00 0.00 53 993.7
20260507130921 48 248 4.0 5.0 0.00 0.00 0.00 53 993.6
20260507130441 47 248 3.0 4.0 0.00 0.00 0.00 53 993.5
20260507125918 47 248 4.0 5.0 0.00 0.00 0.00 53 993.5
20260507125419 47 248 4.0 5.0 0.00 0.00 0.00 53 993.5
20260507124917 47 225 3.0 4.0 0.00 0.00 0.00 54 993.5
20260507124418 46 225 4.0 5.0 0.00 0.00 0.00 55 993.6
20260507123918 46 225 3.0 4.0 0.00 0.00 0.00 55 993.6
20260507123418 46 225 4.0 5.0 0.00 0.00 0.00 56 993.6
20260507122919 46 225 3.0 5.0 0.00 0.00 0.00 56 993.6
20260507122418 46 248 5.0 8.0 0.00 0.00 0.00 56 993.5
20260507121918 46 248 5.0 6.0 0.00 0.00 0.00 56 993.5
20260507121420 45 225 6.0 9.0 0.00 0.00 0.00 56 993.6
20260507120920 45 225 6.0 7.0 0.00 0.00 0.00 57 993.5
20260507120419 45 225 5.0 5.0 0.00 0.00 0.00 56 993.5
20260507115917 45 248 5.0 6.0 0.00 0.00 0.00 56 993.4
20260507115418 45 248 3.0 4.0 0.00 0.00 0.00 56 993.4
20260507114937 45 225 4.0 5.0 0.00 0.00 0.00 56 993.4
20260507114417 45 248 4.0 5.0 0.00 0.00 0.00 57 993.3
20260507113918 45 248 3.0 4.0 0.00 0.00 0.00 57 993.3
20260507113418 45 225 4.0 5.0 0.00 0.00 0.00 57 993.3
20260507112917 45 225 6.0 7.0 0.00 0.00 0.00 57 993.2
20260507112418 45 248 4.0 6.0 0.00 0.00 0.00 57 993.2
20260507111917 45 248 4.0 5.0 0.00 0.00 0.00 57 993.2
20260507111419 45 248 4.0 5.0 0.00 0.00 0.00 57 993.2
20260507110917 45 225 4.0 5.0 0.00 0.00 0.00 57 993.1
20260507110417 45 225 3.0 4.0 0.00 0.00 0.00 57 993.1
20260507105938 45 270 3.0 4.0 0.00 0.00 0.00 57 993.1
20260507105418 45 270 2.0 2.0 0.00 0.00 0.00 57 993.1
20260507104917 45 270 2.0 3.0 0.00 0.00 0.00 57 993.1
20260507104418 45 248 2.0 3.0 0.00 0.00 0.00 57 993.0
20260507103917 45 248 3.0 4.0 0.00 0.00 0.00 56 993.0
20260507103417 45 270 3.0 4.0 0.00 0.00 0.00 57 992.9
20260507102918 45 270 3.0 4.0 0.00 0.00 0.00 57 993.0
20260507102417 45 270 3.0 4.0 0.00 0.00 0.00 57 992.9
20260507101917 45 270 3.0 4.0 0.00 0.00 0.00 57 992.9
20260507101437 45 270 3.0 4.0 0.00 0.00 0.00 57 992.9
20260507100918 45 270 6.0 9.0 0.00 0.00 0.00 57 992.9
20260507100419 45 225 4.0 5.0 0.00 0.00 0.00 57 992.7
20260507095937 46 225 5.0 6.0 0.00 0.00 0.00 57 992.6
20260507095417 46 225 6.0 7.0 0.00 0.00 0.00 57 992.6
20260507094918 46 225 7.0 9.0 0.00 0.00 0.00 57 992.4
20260507094417 46 225 6.0 8.0 0.00 0.00 0.00 57 992.5
20260507093938 46 225 8.0 9.0 0.00 0.00 0.00 57 992.5
20260507093419 46 225 7.0 11.0 0.00 0.00 0.00 57 992.4
20260507092919 46 225 8.0 10.0 0.00 0.00 0.00 57 992.4
20260507092420 46 225 7.0 9.0 0.00 0.00 0.00 57 992.5
20260507091917 46 203 8.0 9.0 0.00 0.00 0.00 56 992.6
20260507091419 46 225 6.0 8.0 0.00 0.00 0.00 56 992.6
20260507090917 46 225 7.0 8.0 0.00 0.00 0.00 56 992.6
20260507090417 46 225 6.0 9.0 0.00 0.01 0.00 56 992.6
20260507085919 46 225 7.0 8.0 0.00 0.01 0.00 56 992.6
20260507085420 46 203 3.0 4.0 0.00 0.01 0.00 56 992.7
20260507084918 46 203 7.0 8.0 0.00 0.01 0.00 56 992.7
20260507084457 46 203 7.0 8.0 0.00 0.01 0.00 56 992.7
20260507083939 46 225 6.0 8.0 0.00 0.01 0.00 56 992.7
20260507083439 46 225 6.0 8.0 0.00 0.01 0.00 56 992.7
20260507082919 47 203 6.0 7.0 0.00 0.01 0.00 55 992.7
20260507082417 47 203 2.0 4.0 0.00 0.01 0.00 55 992.8
20260507081917 47 203 6.0 8.0 0.00 0.01 0.00 55 992.8
20260507081417 47 225 6.0 7.0 0.00 0.01 0.00 55 992.8
20260507080919 47 225 6.0 8.0 0.00 0.01 0.00 55 992.9
20260507080418 47 225 5.0 6.0 0.00 0.01 0.00 55 992.8
20260507075918 47 248 4.0 5.0 0.00 0.02 0.00 55 992.8
20260507075417 47 248 5.0 6.0 0.00 0.02 0.00 55 992.8
20260507074920 47 225 5.0 6.0 0.00 0.02 0.00 54 992.9
20260507074500 47 225 5.0 5.0 0.00 0.03 0.00 54 992.8
20260507073917 47 225 5.0 6.0 0.00 0.03 0.00 54 992.9
20260507073420 48 225 6.0 7.0 0.00 0.04 0.00 54 992.9
20260507072920 48 225 5.0 6.0 0.00 0.04 0.00 55 992.9
20260507072418 48 225 5.0 7.0 0.00 0.04 0.00 55 992.9
20260507071920 48 203 6.0 7.0 0.00 0.04 0.00 55 992.9
20260507071419 48 225 6.0 8.0 0.00 0.04 0.00 54 992.9
20260507070917 48 225 5.0 6.0 0.00 0.05 0.00 54 992.9
20260507070419 48 225 5.0 6.0 0.00 0.05 0.00 54 992.9
20260507065917 48 225 4.0 6.0 0.00 0.05 0.00 54 992.9
20260507065420 48 225 5.0 5.0 0.00 0.05 0.00 54 992.9
20260507064919 48 225 6.0 8.0 0.00 0.06 0.00 54 993.0
20260507064417 48 225 6.0 7.0 0.00 0.06 0.00 55 993.0
20260507063917 48 225 7.0 8.0 0.00 0.06 0.00 55 993.0
20260507063420 48 225 7.0 9.0 0.00 0.07 0.00 55 993.0
20260507063041 48 225 7.0 8.0 0.00 0.07 0.00 54 993.1
20260507062419 48 225 6.0 7.0 0.00 0.07 0.00 54 993.2
20260507061918 48 225 6.0 7.0 0.00 0.08 0.00 54 993.2
20260507061417 48 225 6.0 8.0 0.00 0.08 0.00 54 993.3
20260507060920 48 225 6.0 7.0 0.00 0.09 0.00 54 993.2
20260507060419 48 225 6.0 7.0 0.00 0.09 0.00 54 993.2
20260507055919 48 225 6.0 7.0 0.00 0.09 0.00 54 993.4
20260507055437 48 225 6.0 7.0 0.00 0.10 0.00 54 993.4
20260507054917 48 225 6.0 7.0 0.00 0.11 0.00 54 993.5
20260507054417 48 225 5.0 6.0 0.00 0.11 0.00 54 993.5
20260507053918 48 225 7.0 8.0 0.00 0.11 0.00 54 993.4
20260507053417 48 225 5.0 6.0 0.00 0.11 0.00 54 993.5
20260507052917 48 225 6.0 6.0 0.00 0.11 0.00 54 993.5
20260507052417 48 248 5.0 6.0 0.00 0.12 0.00 54 993.5
20260507051918 48 225 5.0 6.0 0.00 0.12 0.00 54 993.5
20260507051437 48 225 7.0 8.0 0.00 0.12 0.00 53 993.6
20260507050917 48 225 6.0 7.0 0.00 0.13 0.00 54 993.6
20260507050437 48 225 6.0 7.0 0.00 0.13 0.00 54 993.6
20260507045937 48 225 6.0 9.0 0.00 0.14 0.00 53 993.6
20260507045417 48 203 6.0 7.0 0.00 0.14 0.00 54 993.6
20260507044918 48 203 6.0 8.0 0.00 0.15 0.00 53 993.6
20260507044417 48 203 6.0 8.0 0.00 0.16 0.00 53 993.6
20260507043936 49 225 6.0 7.0 0.00 0.17 0.00 53 993.6
20260507043417 49 225 6.0 7.0 0.00 0.17 0.00 53 993.7
20260507042937 49 225 4.0 6.0 0.00 0.18 0.00 53 993.6
20260507042417 49 203 2.0 3.0 0.00 0.19 0.00 52 993.6
20260507041917 49 203 2.0 3.0 0.00 0.19 0.00 52 993.6
20260507041417 49 203 2.0 4.0 0.00 0.20 0.00 52 993.6
20260507040959 49 203 1.0 3.0 0.00 0.20 0.00 51 993.7
20260507040419 50 203 2.0 5.0 0.00 0.21 0.00 51 993.7
20260507035917 50 203 2.0 3.0 0.00 0.21 0.21 51 993.7
20260507035420 50 203 1.0 3.0 0.00 0.21 0.21 51 993.7
20260507034919 50 203 1.0 2.0 0.00 0.22 0.21 51 993.7
20260507034419 50 203 1.0 2.0 0.00 0.23 0.21 51 993.8
20260507033917 50 180 1.0 2.0 0.00 0.23 0.21 51 993.8
20260507033420 50 203 1.0 3.0 0.00 0.24 0.21 51 993.9
20260507032920 50 180 1.0 2.0 0.00 0.24 0.21 51 993.9
20260507032420 50 180 1.0 3.0 0.00 0.25 0.21 51 994.0
20260507031937 50 180 1.0 3.0 0.00 0.26 0.21 51 994.0
20260507031437 50 180 2.0 4.0 0.00 0.27 0.21 51 994.0
20260507030920 50 203 2.0 3.0 0.00 0.27 0.21 52 994.1
20260507030420 50 180 2.0 4.0 0.00 0.28 0.21 52 994.0
20260507025920 50 180 3.0 5.0 0.00 0.29 0.21 52 994.0
20260507025419 50 180 3.0 6.0 0.00 0.30 0.21 52 994.1
20260507024920 50 180 4.0 5.0 0.00 0.31 0.21 52 994.1
20260507024419 50 180 3.0 5.0 0.00 0.31 0.21 52 994.2
20260507023919 50 203 2.0 4.0 0.00 0.32 0.21 52 994.2
20260507023420 50 180 3.0 6.0 0.00 0.34 0.21 52 994.1
20260507022917 50 180 3.0 6.0 0.00 0.35 0.21 52 994.1
20260507022417 50 180 4.0 5.0 0.00 0.36 0.21 51 994.1
20260507021919 50 180 4.0 5.0 0.00 0.38 0.21 51 994.1
20260507021419 50 180 2.0 4.0 0.00 0.39 0.21 52 994.1
20260507020939 50 203 3.0 4.0 0.00 0.40 0.21 51 994.0
20260507020416 50 180 4.0 8.0 0.00 0.41 0.21 51 993.8
20260507015920 50 180 3.0 6.0 0.00 0.41 0.21 51 993.9
20260507015419 50 180 2.0 5.0 0.00 0.42 0.21 51 993.9
20260507014919 50 180 5.0 6.0 0.00 0.43 0.21 52 993.8
20260507014419 51 180 5.0 7.0 0.00 0.44 0.21 52 993.8
20260507013917 51 180 2.0 3.0 0.00 0.44 0.21 52 993.7
20260507013417 51 180 2.0 4.0 0.00 0.45 0.21 51 993.8
20260507012917 51 180 3.0 6.0 0.00 0.45 0.21 51 993.7
20260507012419 51 180 2.0 4.0 0.00 0.45 0.21 51 993.7
20260507011918 51 180 4.0 6.0 0.00 0.45 0.21 50 993.5
20260507011420 51 0 2.0 4.0 0.00 0.46 0.21 49 993.5
20260507010917 51 0 2.0 5.0 0.00 0.46 0.21 49 993.5
20260507010418 51 90 3.0 4.0 0.00 0.46 0.21 50 993.4
20260507005916 51 113 4.0 8.0 0.00 0.47 0.21 51 993.5
20260507005416 51 113 6.0 7.0 0.00 0.47 0.21 50 993.4
20260507004938 51 0 3.0 5.0 0.00 0.48 0.21 51 993.5
20260507004437 51 113 7.0 8.0 0.00 0.48 0.21 50 993.4
20260507003916 51 90 6.0 8.0 0.00 0.48 0.21 50 993.5
20260507003417 51 90 6.0 7.0 0.00 0.49 0.21 50 993.6
20260507002917 51 113 6.0 8.0 0.00 0.49 0.21 51 993.5
20260507002416 51 90 7.0 8.0 0.00 0.49 0.21 51 993.4
20260507001917 51 90 6.0 7.0 0.00 0.49 0.21 52 993.4
20260507001417 52 90 6.0 8.0 0.00 0.50 0.21 52 993.3
20260507000937 51 90 6.0 8.0 0.00 0.50 0.21 52 993.4
20260507000416 52 90 7.0 8.0 0.00 0.50 0.21 52 993.4
20260506235917 52 90 6.0 7.0 0.00 0.51 0.21 51 993.5
20260506235416 52 90 6.0 8.0 0.00 0.52 0.21 52 993.5
20260506234917 52 90 7.0 8.0 0.00 0.53 0.21 51 993.3
20260506234417 52 90 6.0 8.0 0.00 0.53 0.21 51 993.5
20260506233918 52 90 6.0 8.0 0.00 0.54 0.21 52 993.4
20260506233416 52 90 6.0 7.0 0.00 0.55 0.21 52 993.4
20260506232916 52 90 6.0 8.0 0.00 0.55 0.21 51 993.4